Weather History for KCAV - November, 2013

Change the Weather History Date:

Monday, November 11, 2013

  Actual Average Record
Temperature  
Mean Temperature 24 °F -  
Max Temperature 37 °F 41 °F - (-1)
Min Temperature 12 °F 23 °F - (-1)
Degree Days  
Heating Degree Days 40    
Moisture  
Dew Point 19 °F    
Average Humidity 79    
Maximum Humidity 93    
Minimum Humidity 68    
Precipitation  
Precipitation 0.00 in - - ()
Sea Level Pressure  
Sea Level Pressure 30.39 in    
Wind  
Wind Speed 12 mph (NNW)    
Max Wind Speed 25 mph    
Max Gust Speed 32 mph    
Visibility 9 miles    
Events Rain , Snow    
Averages and records for this station are not official NWS values.
T = Trace of Precipitation, MM = Missing Value Source: NWS Daily Summary

Daily Weather History Graph

Daily Weather History Graph

Search for Another Location

Airport or City:

Trip Planner

Search our weather history database for the weather conditions in past years. The results will help you decide how hot, cold, wet, or windy it might be!

Date:

Astronomy

Nov. 11, 2013 Rise Set
Actual Time 7:02 AM CST 4:55 PM CST
Civil Twilight 6:31 AM CST 5:25 PM CST
Nautical Twilight 5:57 AM CST 5:59 PM CST
Astronomical Twilight 5:24 AM CST 6:32 PM CST
Moon 1:44 PM CST (11/11) 12:39 AM CST (11/11)
Length of Visible Light 10h 53m
Length of Day
9h 53m
Waxing Gibbous, 66% of the Moon is Illuminated
Nov 11
Waxing Gibbous
Nov 17
Full
Nov 25
Last Quarter
Dec 2
New
Dec 9
First Quarter

Hourly Weather History & Observations

Time (CST) Temp. Windchill Dew Point Humidity Pressure Visibility Wind Dir Wind Speed Gust Speed Precip Events Conditions
12:15 AM 33.8 °F 27.7 °F 28.4 °F 81% 30.13 in 10.0 mi SW 6.9 mph - N/A   Clear
12:55 AM 37.4 °F 30.8 °F 30.2 °F 75% 30.11 in 10.0 mi SSW 9.2 mph - N/A   Clear
1:15 AM 35.6 °F 29.9 °F 30.2 °F 81% 30.10 in 10.0 mi SSW 6.9 mph - N/A   Clear
1:55 AM 33.8 °F 28.6 °F 30.2 °F 87% 30.10 in 10.0 mi SSW 5.8 mph - N/A   Clear
2:15 AM 35.6 °F 31.7 °F 30.2 °F 81% 30.10 in 10.0 mi SW 4.6 mph - N/A   Partly Cloudy
2:35 AM 35.6 °F 32.8 °F 30.2 °F 81% 30.10 in 10.0 mi NW 3.5 mph - N/A   Scattered Clouds
2:55 AM 37.4 °F 31.4 °F 30.2 °F 75% 30.11 in 10.0 mi NNW 8.1 mph - N/A   Clear
3:15 AM 37.4 °F 31.4 °F 32.0 °F 81% 30.11 in 10.0 mi NNW 8.1 mph - N/A   Scattered Clouds
3:35 AM 37.4 °F 33.8 °F 32.0 °F 81% 30.10 in 10.0 mi NW 4.6 mph - N/A   Scattered Clouds
3:55 AM 35.6 °F 28.0 °F 32.0 °F 87% 30.12 in 10.0 mi NNW 10.4 mph - N/A   Scattered Clouds
4:15 AM 35.6 °F 28.0 °F 30.2 °F 81% 30.12 in 10.0 mi North 10.4 mph 17.3 mph N/A   Partly Cloudy
4:35 AM 35.6 °F 29.2 °F 30.2 °F 81% 30.13 in 10.0 mi North 8.1 mph - N/A   Clear
4:55 AM 35.6 °F 27.1 °F 30.2 °F 81% 30.15 in 10.0 mi North 12.7 mph - N/A   Clear
5:15 AM 33.8 °F 23.9 °F 30.2 °F 87% 30.16 in 10.0 mi North 15.0 mph - N/A   Clear
5:35 AM 33.8 °F 25.3 °F 30.2 °F 87% 30.16 in 10.0 mi North 11.5 mph - N/A   Clear
5:55 AM 33.8 °F 23.9 °F 30.2 °F 87% 30.16 in 10.0 mi North 15.0 mph - N/A   Scattered Clouds
6:15 AM 35.6 °F 25.2 °F 32.0 °F 87% 30.16 in 10.0 mi North 18.4 mph - N/A   Overcast
6:35 AM 35.6 °F 24.2 °F 30.2 °F 81% 30.20 in 10.0 mi North 21.9 mph 27.6 mph N/A   Overcast
6:55 AM 35.6 °F 25.9 °F 30.2 °F 81% 30.21 in 10.0 mi North 16.1 mph 26.5 mph N/A   Overcast
7:15 AM 33.8 °F 22.2 °F 30.2 °F 87% 30.23 in 10.0 mi North 20.7 mph 27.6 mph N/A   Overcast
7:35 AM 32.0 °F 18.9 °F 28.4 °F 87% 30.25 in 10.0 mi North 24.2 mph 32.2 mph N/A   Overcast
7:55 AM 30.2 °F 17.1 °F 26.6 °F 86% 30.27 in 10.0 mi North 21.9 mph 27.6 mph N/A   Overcast
8:15 AM 30.2 °F 17.1 °F 24.8 °F 80% 30.29 in 10.0 mi North 21.9 mph - N/A   Light Freezing Rain
8:35 AM 28.4 °F 14.4 °F 23.0 °F 80% 30.31 in 9.0 mi North 23.0 mph 32.2 mph N/A   Light Freezing Rain
8:55 AM 26.6 °F 12.4 °F 21.2 °F 80% 30.31 in 10.0 mi North 21.9 mph 29.9 mph N/A   Light Freezing Rain
9:15 AM 26.6 °F 11.4 °F 23.0 °F 86% 30.32 in 2.5 mi North 25.3 mph 31.1 mph N/A   Partly Cloudy
9:35 AM 24.8 °F 10.3 °F 21.2 °F 86% 30.33 in 0.8 mi North 20.7 mph - N/A Rain Light Freezing Rain
9:55 AM 24.8 °F 11.5 °F 21.2 °F 86% 30.35 in 0.2 mi North 17.3 mph 26.5 mph N/A   Overcast
10:15 AM 23.0 °F 9.2 °F 21.2 °F 93% 30.36 in 0.2 mi North 17.3 mph 23.0 mph N/A Snow Snow
10:35 AM 24.8 °F 13.4 °F 19.4 °F 80% 30.36 in 1.2 mi North 12.7 mph 19.6 mph N/A   Scattered Clouds
10:55 AM 24.8 °F 12.9 °F 19.4 °F 80% 30.37 in 5.0 mi North 13.8 mph 20.7 mph N/A   Clear
11:15 AM 24.8 °F 12.4 °F 19.4 °F 80% 30.38 in 9.0 mi NNW 15.0 mph 21.9 mph N/A   Light Freezing Rain
11:35 AM 26.6 °F 13.8 °F 19.4 °F 74% 30.38 in 10.0 mi NNW 17.3 mph 24.2 mph N/A   Light Freezing Rain
11:55 AM 26.6 °F 13.1 °F 19.4 °F 74% 30.39 in 10.0 mi North 19.6 mph 26.5 mph N/A   Light Freezing Rain
12:15 PM 26.6 °F 13.4 °F 19.4 °F 74% 30.39 in 10.0 mi North 18.4 mph 26.5 mph N/A   Light Freezing Rain
12:35 PM 24.8 °F 11.1 °F 19.4 °F 80% 30.39 in 10.0 mi North 18.4 mph 25.3 mph N/A   Light Freezing Rain
12:55 PM 26.6 °F 14.3 °F 19.4 °F 74% 30.40 in 10.0 mi NNW 16.1 mph 25.3 mph N/A   Light Freezing Rain
1:15 PM 24.8 °F 11.1 °F 17.6 °F 74% 30.41 in 10.0 mi North 18.4 mph 27.6 mph N/A   Light Freezing Rain
1:35 PM 24.8 °F 11.9 °F 17.6 °F 74% 30.42 in 10.0 mi North 16.1 mph 27.6 mph N/A   Light Freezing Rain
1:55 PM 24.8 °F 11.1 °F 17.6 °F 74% 30.42 in 10.0 mi NNW 18.4 mph 27.6 mph N/A   Light Freezing Rain
2:15 PM 24.8 °F 11.1 °F 17.6 °F 74% 30.43 in 10.0 mi North 18.4 mph 25.3 mph N/A   Overcast
2:35 PM 23.0 °F 8.3 °F 17.6 °F 80% 30.44 in 10.0 mi NNW 19.6 mph 25.3 mph N/A   Light Freezing Rain
2:55 PM 23.0 °F 8.0 °F 15.8 °F 74% 30.45 in 10.0 mi North 20.7 mph 27.6 mph N/A   Overcast
3:15 PM 23.0 °F 8.0 °F 15.8 °F 74% 30.47 in 10.0 mi North 20.7 mph 28.8 mph N/A   Overcast
3:35 PM 23.0 °F 9.2 °F 14.0 °F 68% 30.47 in 10.0 mi North 17.3 mph 27.6 mph N/A   Mostly Cloudy
3:55 PM 23.0 °F 9.6 °F 14.0 °F 68% 30.48 in 10.0 mi North 16.1 mph 24.2 mph N/A   Mostly Cloudy
4:15 PM 21.2 °F 7.3 °F 14.0 °F 74% 30.49 in 10.0 mi North 16.1 mph 23.0 mph N/A   Partly Cloudy
4:35 PM 23.0 °F 9.2 °F 14.0 °F 68% 30.50 in 10.0 mi North 17.3 mph 23.0 mph N/A   Partly Cloudy
4:55 PM 21.2 °F 6.8 °F 14.0 °F 74% 30.51 in 10.0 mi North 17.3 mph 23.0 mph N/A   Partly Cloudy
5:15 PM 21.2 °F 6.0 °F 14.0 °F 74% 30.52 in 10.0 mi North 19.6 mph 26.5 mph N/A   Scattered Clouds
5:35 PM 19.4 °F 4.5 °F 12.2 °F 74% 30.54 in 10.0 mi NNW 17.3 mph 26.5 mph N/A   Partly Cloudy
5:55 PM 19.4 °F 6.6 °F 12.2 °F 74% 30.56 in 10.0 mi NNW 12.7 mph 20.7 mph N/A   Clear
6:15 PM 17.6 °F 4.3 °F 12.2 °F 79% 30.56 in 10.0 mi NNW 12.7 mph - N/A   Clear
6:35 PM 17.6 °F 5.7 °F 10.4 °F 73% 30.57 in 10.0 mi NNW 10.4 mph - N/A   Clear
6:55 PM 15.8 °F 4.2 °F 10.4 °F 79% 30.58 in 10.0 mi NNW 9.2 mph - N/A   Clear
7:15 PM 15.8 °F 3.4 °F 10.4 °F 79% 30.59 in 10.0 mi NNW 10.4 mph - N/A   Clear
7:35 PM 15.8 °F 2.7 °F 10.4 °F 79% 30.59 in 10.0 mi NNW 11.5 mph - N/A   Clear
7:55 PM 15.8 °F 4.2 °F 10.4 °F 79% 30.60 in 10.0 mi NNW 9.2 mph - N/A   Clear
8:15 PM 15.8 °F 3.4 °F 8.6 °F 73% 30.61 in 10.0 mi NNW 10.4 mph - N/A   Clear
8:35 PM 15.8 °F 4.2 °F 8.6 °F 73% 30.63 in 10.0 mi NNW 9.2 mph - N/A   Clear
8:55 PM 14.0 °F 2.9 °F 8.6 °F 79% 30.64 in 10.0 mi NNW 8.1 mph - N/A   Clear
9:15 PM 14.0 °F 2.9 °F 8.6 °F 79% 30.65 in 10.0 mi NNW 8.1 mph - N/A   Clear
9:35 PM 14.0 °F 2.0 °F 8.6 °F 79% 30.66 in 10.0 mi NNW 9.2 mph - N/A   Clear
9:55 PM 14.0 °F 1.2 °F 6.8 °F 73% 30.67 in 10.0 mi NNW 10.4 mph - N/A   Clear
10:15 PM 14.0 °F 0.5 °F 6.8 °F 73% 30.67 in 10.0 mi NNW 11.5 mph - N/A   Clear
10:35 PM 14.0 °F 0.5 °F 6.8 °F 73% 30.68 in 10.0 mi NNW 11.5 mph - N/A   Clear
10:55 PM 12.2 °F -1.8 °F 6.8 °F 79% 30.68 in 10.0 mi NNW 11.5 mph - N/A   Clear
11:15 PM 12.2 °F -0.2 °F 6.8 °F 79% 30.69 in 10.0 mi NNW 9.2 mph - N/A   Clear
11:35 PM 12.2 °F 0.7 °F 6.8 °F 79% 30.70 in 10.0 mi NNW 8.1 mph - N/A   Clear
11:55 PM 12.2 °F -0.2 °F 6.8 °F 79% 30.70 in 10.0 mi NNW 9.2 mph - N/A   Clear